Oscoda, MI

11:25 PM EST on November 19, 2019 (GMT -0500)
Oscoda-Wurtsmith

Weather History for KOSC - September, 2019

Change the Weather History Date:

Tuesday, September 17, 2019

  Actual Average Record
Temperature  
Mean Temperature 61 °F -  
Max Temperature 72 °F 69 °F 84 °F (2017)
Min Temperature 50 °F 48 °F 31 °F (2013)
Degree Days  
Heating Degree Days 4    
Growing Degree Days 11 (Base 50)    
Moisture  
Dew Point 58 °F    
Average Humidity 91    
Maximum Humidity 100    
Minimum Humidity 64    
Precipitation  
Precipitation 0.00 in - - ()
Sea Level Pressure  
Sea Level Pressure 30.21 in    
Wind  
Wind Speed 2 mph (SSE)    
Max Wind Speed 9 mph    
Max Gust Speed -    
Visibility 7 miles    
Events Fog    
Averages and records for this station are not official NWS values.
T = Trace of Precipitation, MM = Missing Value Source: NWS Daily Summary

Daily Weather History Graph

Daily Weather History Graph

Search for Another Location

Airport or City:

Astronomy

Sep. 17, 2019 Rise Set
Actual Time 7:14 AM EDT 7:40 PM EDT
Civil Twilight 6:45 AM EDT 8:09 PM EDT
Nautical Twilight 6:10 AM EDT 8:44 PM EDT
Astronomical Twilight 5:35 AM EDT 9:19 PM EDT
Moon 9:36 PM EDT (9/17) 10:24 AM EDT (9/17)
Length of Visible Light 13h 24m
Length of Day
12h 26m
Waning Gibbous, 89% of the Moon is Illuminated
Sep 17
Waning Gibbous
Sep 21
Last Quarter
Sep 28
New
Oct 5
First Quarter
Oct 13
Full

Hourly Weather History & Observations

Time (EDT) Temp. Dew Point Humidity Pressure Visibility Wind Dir Wind Speed Gust Speed Precip Events Conditions
12:15 AM 53.6 °F 53.6 °F 100% 30.18 in 1.5 mi Calm Calm - N/A   Overcast
12:39 AM 53.6 °F 53.6 °F 100% 30.18 in 1.8 mi Calm Calm - N/A   Overcast
12:57 AM 54.0 °F 54.0 °F 100% 30.18 in 1.2 mi NNW 3.5 mph - N/A   Mostly Cloudy
1:15 AM 53.4 °F 53.4 °F 100% 30.18 in 1.0 mi Calm Calm - N/A   Overcast
1:35 AM 53.1 °F 53.1 °F 100% 30.19 in 0.5 mi Calm Calm - N/A Fog Fog
1:55 AM 53.8 °F 53.8 °F 100% 30.19 in 0.2 mi Calm Calm - N/A Fog Fog
1:59 AM 53.8 °F 53.8 °F 100% 30.19 in 0.5 mi Calm Calm - N/A Fog Fog
2:18 AM 53.8 °F 53.8 °F 100% 30.19 in 0.5 mi Calm Calm - N/A Fog Fog
2:36 AM 54.1 °F 54.1 °F 100% 30.19 in 0.5 mi Calm Calm - N/A Fog Fog
2:55 AM 53.6 °F 53.6 °F 100% 30.19 in 0.5 mi Calm Calm - N/A Fog Fog
3:15 AM 54.0 °F 54.0 °F 100% 30.18 in 0.5 mi Calm Calm - N/A Fog Fog
3:16 AM 53.8 °F 53.8 °F 100% 30.18 in 0.5 mi Calm Calm - N/A Fog Fog
3:39 AM 51.1 °F 51.1 °F 100% 30.18 in - Calm Calm - N/A   Mostly Cloudy
3:57 AM 50.0 °F 50.0 °F 100% 30.18 in 0.5 mi Calm Calm - N/A Fog Fog
4:15 AM 51.3 °F 51.3 °F 100% 30.18 in 1.8 mi Calm Calm - N/A   Mostly Cloudy
4:35 AM 51.6 °F 51.6 °F 100% 30.19 in 0.5 mi NW 3.5 mph - N/A Fog Fog
4:36 AM 51.6 °F 51.6 °F 100% 30.19 in 0.5 mi NW 3.5 mph - N/A Fog Fog
4:55 AM 50.9 °F 50.9 °F 100% 30.20 in 0.8 mi Calm Calm - N/A   Overcast
5:18 AM 51.8 °F 51.8 °F 100% 30.20 in 7.0 mi Calm Calm - N/A   Scattered Clouds
5:36 AM 51.6 °F 51.6 °F 100% 30.20 in 10.0 mi NW 3.5 mph - N/A   Clear
5:55 AM 51.4 °F 51.4 °F 100% 30.22 in 2.0 mi Calm Calm - N/A   Mostly Cloudy
5:56 AM 51.4 °F 51.4 °F 100% 30.22 in 2.0 mi Calm Calm - N/A   Mostly Cloudy
6:15 AM 51.4 °F 51.4 °F 100% 30.22 in 5.0 mi Calm Calm - N/A   Overcast
6:39 AM 52.7 °F 52.7 °F 100% 30.23 in 10.0 mi Calm Calm - N/A   Overcast
6:57 AM 53.8 °F 53.8 °F 100% 30.23 in 10.0 mi Calm Calm - N/A   Overcast
7:15 AM 54.1 °F 54.1 °F 100% 30.24 in 10.0 mi Calm Calm - N/A   Scattered Clouds
7:16 AM 54.1 °F 54.1 °F 100% 30.24 in 10.0 mi Calm Calm - N/A   Scattered Clouds
7:35 AM 52.5 °F 52.5 °F 100% 30.24 in 10.0 mi NW 3.5 mph - N/A   Clear
7:55 AM 52.3 °F 52.3 °F 100% 30.24 in 10.0 mi Calm Calm - N/A   Scattered Clouds
8:00 AM 52.2 °F 52.2 °F 100% 30.24 in 10.0 mi Calm Calm - N/A   Scattered Clouds
8:18 AM 53.2 °F 53.2 °F 100% 30.24 in 10.0 mi Calm Calm - N/A   Mostly Cloudy
8:36 AM 54.7 °F 54.7 °F 100% 30.24 in 10.0 mi Calm Calm - N/A   Mostly Cloudy
8:55 AM 56.7 °F 56.7 °F 100% 30.25 in 10.0 mi Calm Calm - N/A   Overcast
9:15 AM 58.5 °F 58.5 °F 100% 30.25 in 10.0 mi Calm Calm - N/A   Overcast
9:16 AM 58.6 °F 58.6 °F 100% 30.25 in 10.0 mi Calm Calm - N/A   Overcast
9:39 AM 59.9 °F 59.9 °F 100% 30.24 in 10.0 mi Calm Calm - N/A   Overcast
9:57 AM 61.9 °F 61.5 °F 99% 30.24 in 10.0 mi SSE 4.6 mph - N/A   Overcast
10:15 AM 62.4 °F 61.5 °F 97% 30.24 in 10.0 mi South 3.5 mph - N/A   Overcast
10:35 AM 62.6 °F 61.3 °F 96% 30.23 in 10.0 mi SSE 3.5 mph - N/A   Overcast
10:55 AM 62.6 °F 61.7 °F 97% 30.25 in 10.0 mi Calm Calm - N/A   Overcast
11:18 AM 63.0 °F 61.3 °F 94% 30.26 in 10.0 mi Calm Calm - N/A   Overcast
11:36 AM 63.1 °F 61.2 °F 93% 30.25 in 10.0 mi South 4.6 mph - N/A   Overcast
11:55 AM 63.7 °F 61.7 °F 93% 30.24 in 10.0 mi SSW 5.8 mph - N/A   Overcast
12:15 PM 63.9 °F 61.2 °F 91% 30.24 in 10.0 mi SW 6.9 mph - N/A   Overcast
12:39 PM 65.5 °F 59.2 °F 80% 30.24 in 10.0 mi SSW 4.6 mph - N/A   Overcast
12:57 PM 66.9 °F 58.8 °F 75% 30.25 in 10.0 mi WSW 4.6 mph - N/A   Overcast
1:15 PM 68.0 °F 59.0 °F 73% 30.24 in 10.0 mi Calm Calm - N/A   Overcast
1:16 PM 68.0 °F 59.0 °F 73% 30.24 in 10.0 mi West 3.5 mph - N/A   Overcast
1:35 PM 69.3 °F 59.2 °F 70% 30.25 in 10.0 mi Calm Calm - N/A   Overcast
1:55 PM 71.2 °F 59.5 °F 66% 30.24 in 10.0 mi SSE 6.9 mph - N/A   Mostly Cloudy
2:00 PM 71.1 °F 59.4 °F 66% 30.24 in 10.0 mi WNW 3.5 mph - N/A   Mostly Cloudy
2:18 PM 72.3 °F 59.7 °F 64% 30.23 in 10.0 mi SSW 4.6 mph - N/A   Mostly Cloudy
2:36 PM 71.6 °F 59.4 °F 65% 30.23 in 10.0 mi Calm Calm - N/A   Mostly Cloudy
2:55 PM 71.4 °F 59.9 °F 67% 30.23 in 10.0 mi East 6.9 mph - N/A   Mostly Cloudy
3:15 PM 71.1 °F 60.3 °F 69% 30.22 in 10.0 mi ESE 8.1 mph - N/A   Scattered Clouds
3:39 PM 70.7 °F 60.3 °F 69% 30.21 in 10.0 mi ESE 6.9 mph - N/A   Clear
3:57 PM 70.7 °F 60.6 °F 70% 30.21 in 10.0 mi ESE 8.1 mph - N/A   Clear
4:15 PM 70.3 °F 60.6 °F 71% 30.21 in 10.0 mi ESE 6.9 mph - N/A   Clear
4:35 PM 69.6 °F 60.6 °F 73% 30.20 in 10.0 mi SE 8.1 mph - N/A   Clear
4:55 PM 70.2 °F 60.8 °F 72% 30.19 in 10.0 mi SE 9.2 mph - N/A   Clear
4:59 PM 69.8 °F 60.8 °F 73% 30.19 in 10.0 mi SE 8.1 mph - N/A   Clear
5:18 PM 69.3 °F 61.0 °F 75% 30.19 in 10.0 mi ESE 6.9 mph - N/A   Clear
5:36 PM 69.6 °F 60.8 °F 73% 30.19 in 10.0 mi SSE 6.9 mph - N/A   Clear
5:55 PM 69.3 °F 60.6 °F 74% 30.19 in 10.0 mi SE 5.8 mph - N/A   Clear
5:56 PM 69.3 °F 60.6 °F 74% 30.19 in 10.0 mi SSE 5.8 mph - N/A   Clear
6:15 PM 68.9 °F 60.8 °F 75% 30.19 in 10.0 mi SE 5.8 mph - N/A   Clear
6:16 PM 68.7 °F 60.8 °F 76% 30.19 in 10.0 mi SE 4.6 mph - N/A   Clear
6:39 PM 67.3 °F 61.0 °F 80% 30.18 in 10.0 mi SE 4.6 mph - N/A   Clear
6:57 PM 66.2 °F 61.0 °F 83% 30.18 in 10.0 mi SE 4.6 mph - N/A   Clear
7:15 PM 65.5 °F 61.0 °F 85% 30.18 in 10.0 mi SE 3.5 mph - N/A   Clear
7:16 PM 65.3 °F 61.0 °F 86% 30.18 in 10.0 mi SE 4.6 mph - N/A   Clear
7:35 PM 64.6 °F 61.2 °F 89% 30.18 in 10.0 mi SSE 3.5 mph - N/A   Clear
7:36 PM 64.6 °F 61.2 °F 89% 30.18 in 10.0 mi Calm Calm - N/A   Clear
7:55 PM 64.0 °F 62.6 °F 95% 30.18 in 10.0 mi Calm Calm - N/A   Clear
8:00 PM 63.5 °F 62.2 °F 96% 30.18 in 10.0 mi Calm Calm - N/A   Clear
8:18 PM 63.5 °F 63.0 °F 98% 30.18 in 10.0 mi Calm Calm - N/A   Clear
8:36 PM 62.4 °F 62.4 °F 100% 30.18 in 7.0 mi Calm Calm - N/A   Clear
8:55 PM 62.2 °F 62.2 °F 100% 30.18 in 7.0 mi Calm Calm - N/A   Clear
8:56 PM 62.2 °F 62.2 °F 100% 30.19 in 7.0 mi Calm Calm - N/A   Clear
9:15 PM 60.6 °F 60.6 °F 100% 30.19 in 0.8 mi Calm Calm - N/A   Mist
9:16 PM 60.4 °F 60.4 °F 100% 30.19 in 0.8 mi Calm Calm - N/A   Mist
9:39 PM 58.6 °F 58.6 °F 100% 30.20 in 0.8 mi Calm Calm - N/A   Mostly Cloudy
9:57 PM 58.5 °F 58.5 °F 100% 30.19 in 1.5 mi WSW 3.5 mph - N/A   Overcast
10:15 PM 57.4 °F 57.4 °F 100% 30.20 in 7.0 mi Calm Calm - N/A   Overcast
10:35 PM 57.7 °F 57.7 °F 100% 30.20 in 0.8 mi Calm Calm - N/A   Overcast
10:55 PM 58.1 °F 58.1 °F 100% 30.20 in 10.0 mi Calm Calm - N/A   Mostly Cloudy
10:59 PM 57.9 °F 57.9 °F 100% 30.20 in 5.0 mi Calm Calm - N/A   Mostly Cloudy
11:18 PM 56.3 °F 56.3 °F 100% 30.20 in 0.2 mi Calm Calm - N/A Fog Fog
11:36 PM 56.8 °F 56.8 °F 100% 30.20 in 3.0 mi Calm Calm - N/A   Mostly Cloudy
11:55 PM 56.7 °F 56.7 °F 100% 30.20 in 1.2 mi Calm Calm - N/A   Scattered Clouds